Simultaneous Nadir Overpasses (SNOs) Predictions

Prediction of SNOs between NPP and TERRA Satellite Orbit:

Table of predicted SNOs for the next 14.0 days since TLE Epoch: 12/17/2016
Index Date (NPP) Time (NPP) Lat,Lon (NPP) SZA (NPP ) Date (TERRA) Time (TERRA) Lat,Lon (TERRA) SZA (TERRA ) Distance(km) Time Diff (sec)
1 12/17/2016 18:22:57 -68.44, 82.84 88.29 12/17/2016 18:24:04 -68.43, 82.84 88.31 1.48 67
2 12/17/2016 19:13:41 68.33,-109.70 91.60 12/17/2016 19:13:31 68.32,-109.64 91.59 2.68 10
3 12/17/2016 20:04:17 -67.91, 58.14 88.83 12/17/2016 20:03:05 -67.99, 57.60 88.75 24.29 72
4 12/20/2016 10:39:50 -68.41,-161.35 88.27 12/20/2016 10:40:32 -68.41,-161.31 88.28 1.95 42
5 12/20/2016 11:30:33 68.25, 6.17 91.57 12/20/2016 11:30:00 68.24, 6.14 91.55 1.91 33
6 12/23/2016 02:06:13 69.07, 146.22 92.40 12/23/2016 02:07:22 68.98, 147.66 92.29 58.17 69
7 12/23/2016 02:56:43 -68.33, -45.47 88.36 12/23/2016 02:57:02 -68.32, -45.53 88.38 2.83 19
8 12/23/2016 03:47:27 68.22, 121.98 91.53 12/23/2016 03:46:29 68.20, 121.98 91.51 2.01 58
9 12/25/2016 18:22:56 68.46, -97.19 91.72 12/25/2016 18:24:00 68.44, -97.13 91.69 3.14 64
10 12/25/2016 19:13:37 -68.31, 70.33 88.45 12/25/2016 19:13:31 -68.28, 70.30 88.48 3.29 6
11 12/25/2016 20:04:14 67.82,-121.75 91.07 12/25/2016 20:03:03 67.88,-122.51 91.14 32.84 71
12 12/28/2016 10:39:49 68.39, 18.68 91.52 12/28/2016 10:40:29 68.39, 18.69 91.53 0.95 40
13 12/28/2016 11:30:30 -68.23,-173.80
